Time,TemperatureF,DewpointF,PressureIn,WindDirection,WindDirectionDegrees,WindSpeedMPH,WindSpeedGustMPH,Humidity,HourlyPrecipIn,Conditions,Clouds,dailyrainin,SoftwareType,DateUTC
2013-06-27 07:47:00,57.5,51.4,29.72,SSE,158,0.0,0.0,80,0.00,,---,0.00,VWS V14.00,2013-06-27 12:47:00,
2013-06-27 07:48:00,60.1,54.3,29.72,South,181,0.0,0.0,81,0.00,,---,0.00,VWS V14.00,2013-06-27 12:48:00,
2013-06-27 07:52:00,61.3,55.4,29.72,South,181,0.0,0.0,81,0.00,,---,0.00,VWS V14.00,2013-06-27 12:52:00,
2013-06-27 07:53:00,61.3,55.8,29.72,South,181,0.0,0.0,82,0.00,,---,0.00,VWS V14.00,2013-06-27 12:53:00,
2013-06-27 07:57:00,62.9,56.6,29.72,South,181,0.0,0.0,80,0.00,,---,0.00,VWS V14.00,2013-06-27 12:57:00,
2013-06-27 07:58:00,62.9,56.6,29.72,South,181,0.0,0.0,80,0.00,,---,0.00,VWS V14.00,2013-06-27 12:58:00,
2013-06-27 08:02:00,63.9,57.3,29.70,South,181,0.0,0.0,79,0.00,,---,0.00,VWS V14.00,2013-06-27 13:02:00,
2013-06-27 08:03:00,63.9,57.3,29.70,South,181,0.0,0.0,79,0.00,,---,0.00,VWS V14.00,2013-06-27 13:03:00,
2013-06-27 08:08:00,65.2,57.1,29.70,South,181,0.0,0.0,75,0.00,,---,0.00,VWS V14.00,2013-06-27 13:08:00,
2013-06-27 08:13:00,65.8,56.5,29.70,South,181,0.0,0.0,72,0.00,,---,0.00,VWS V14.00,2013-06-27 13:13:00,
2013-06-27 08:14:00,66.0,56.3,29.73,South,181,0.0,0.0,71,0.00,,---,0.00,VWS V14.00,2013-06-27 13:14:00,
2013-06-27 08:18:00,66.9,56.8,29.73,South,181,0.0,0.0,70,0.00,,---,0.00,VWS V14.00,2013-06-27 13:18:00,
2013-06-27 08:19:00,67.1,55.8,29.73,South,181,0.0,0.0,67,0.00,,---,0.00,VWS V14.00,2013-06-27 13:19:00,
2013-06-27 08:23:00,67.8,55.6,29.73,South,181,0.0,0.0,65,0.00,,---,0.00,VWS V14.00,2013-06-27 13:23:00,
2013-06-27 08:24:00,67.8,54.8,29.73,South,181,0.0,0.0,63,0.00,,---,0.00,VWS V14.00,2013-06-27 13:24:00,
2013-06-27 08:28:00,68.9,56.2,29.73,South,181,0.0,0.0,64,0.00,,---,0.00,VWS V14.00,2013-06-27 13:28:00,
2013-06-27 08:29:00,69.1,56.4,29.72,South,181,0.0,0.0,64,0.00,,---,0.00,VWS V14.00,2013-06-27 13:29:00,
2013-06-27 08:33:00,70.3,57.1,29.72,South,181,0.0,0.0,63,0.00,,---,0.00,VWS V14.00,2013-06-27 13:33:00,
2013-06-27 08:34:00,70.4,57.2,29.72,South,181,0.0,0.0,63,0.00,,---,0.00,VWS V14.00,2013-06-27 13:34:00,
2013-06-27 08:38:00,71.6,58.3,29.72,South,181,0.0,0.0,63,0.00,,---,0.00,VWS V14.00,2013-06-27 13:38:00,
2013-06-27 08:39:00,72.0,58.7,29.72,South,181,0.0,0.0,63,0.00,,---,0.00,VWS V14.00,2013-06-27 13:39:00,
2013-06-27 08:43:00,72.8,57.7,29.69,South,181,0.0,0.0,59,0.00,,---,0.00,VWS V14.00,2013-06-27 13:43:00,
2013-06-27 08:44:00,73.0,57.8,29.69,South,181,0.0,0.0,59,0.00,,---,0.00,VWS V14.00,2013-06-27 13:44:00,
2013-06-27 08:48:00,73.9,58.7,29.69,South,181,0.0,0.0,59,0.00,,---,0.00,VWS V14.00,2013-06-27 13:48:00,
2013-06-27 08:49:00,73.9,57.7,29.69,South,181,0.0,0.0,57,0.00,,---,0.00,VWS V14.00,2013-06-27 13:49:00,
2013-06-27 08:50:00,73.9,57.7,29.69,South,181,0.0,0.0,57,0.00,,---,0.00,VWS V14.00,2013-06-27 13:50:00,
2013-06-27 08:53:00,74.6,57.4,29.69,South,181,0.0,0.0,55,0.00,,---,0.00,VWS V14.00,2013-06-27 13:53:00,
2013-06-27 08:54:00,74.7,57.0,29.69,South,181,0.0,0.0,54,0.00,,---,0.00,VWS V14.00,2013-06-27 13:54:00,
2013-06-27 08:55:00,74.9,57.2,29.69,South,181,0.0,0.0,54,0.00,,---,0.00,VWS V14.00,2013-06-27 13:55:00,
2013-06-27 08:59:00,75.6,57.8,29.69,South,181,0.0,0.0,54,0.00,,---,0.00,VWS V14.00,2013-06-27 13:59:00,
2013-06-27 09:00:00,75.8,58.0,29.69,South,181,0.0,0.0,54,0.00,,---,0.00,VWS V14.00,2013-06-27 14:00:00,
2013-06-27 09:04:00,76.8,57.3,29.69,South,181,0.0,0.0,51,0.00,,---,0.00,VWS V14.00,2013-06-27 14:04:00,
2013-06-27 09:05:00,77.0,57.5,29.69,South,181,0.0,0.0,51,0.00,,---,0.00,VWS V14.00,2013-06-27 14:05:00,
2013-06-27 09:09:00,78.3,57.6,29.69,South,181,0.0,0.0,49,0.00,,---,0.00,VWS V14.00,2013-06-27 14:09:00,
2013-06-27 09:10:00,78.3,57.6,29.69,South,181,0.0,0.0,49,0.00,,---,0.00,VWS V14.00,2013-06-27 14:10:00,
2013-06-27 09:11:00,78.5,57.2,29.69,South,181,0.0,0.0,48,0.00,,---,0.00,VWS V14.00,2013-06-27 14:11:00,
2013-06-27 09:14:00,79.2,57.2,29.68,South,181,0.0,0.0,47,0.00,,---,0.00,VWS V14.00,2013-06-27 14:14:00,
2013-06-27 09:15:00,79.6,57.6,29.68,South,181,0.0,0.0,47,0.00,,---,0.00,VWS V14.00,2013-06-27 14:15:00,
2013-06-27 09:16:00,79.9,57.3,29.68,South,181,0.0,0.0,46,0.00,,---,0.00,VWS V14.00,2013-06-27 14:16:00,
2013-06-27 09:20:00,80.5,57.2,29.68,South,181,0.0,0.0,45,0.00,,---,0.00,VWS V14.00,2013-06-27 14:20:00,
2013-06-27 09:21:00,80.7,56.8,29.68,South,181,0.0,0.0,44,0.00,,---,0.00,VWS V14.00,2013-06-27 14:21:00,
2013-06-27 09:25:00,81.4,54.1,29.68,South,181,0.0,0.0,39,0.00,,---,0.00,VWS V14.00,2013-06-27 14:25:00,
2013-06-27 09:26:00,81.4,54.1,29.68,South,181,0.0,0.0,39,0.00,,---,0.00,VWS V14.00,2013-06-27 14:26:00,
2013-06-27 09:30:00,82.2,51.8,29.68,West,271,0.0,0.0,35,0.00,,---,0.00,VWS V14.00,2013-06-27 14:30:00,
2013-06-27 09:31:00,82.4,52.0,29.68,West,274,0.0,6.0,35,0.00,,---,0.00,VWS V14.00,2013-06-27 14:31:00,
2013-06-27 09:32:00,82.6,50.6,29.68,West,274,7.0,8.0,33,0.00,,---,0.00,VWS V14.00,2013-06-27 14:32:00,
2013-06-27 09:35:00,83.0,51.8,29.68,West,275,7.0,10.0,34,0.00,,---,0.00,VWS V14.00,2013-06-27 14:35:00,
2013-06-27 09:36:00,83.0,51.8,29.68,West,275,9.0,10.0,34,0.00,,---,0.00,VWS V14.00,2013-06-27 14:36:00,
2013-06-27 09:37:00,83.0,51.8,29.68,West,272,6.0,10.0,34,0.00,,---,0.00,VWS V14.00,2013-06-27 14:37:00,
2013-06-27 09:40:00,83.2,51.1,29.68,West,270,1.0,11.0,33,0.00,,---,0.00,VWS V14.00,2013-06-27 14:40:00,
2013-06-27 09:41:00,83.4,51.3,29.68,West,272,6.0,11.0,33,0.00,,---,0.00,VWS V14.00,2013-06-27 14:41:00,
2013-06-27 09:42:00,83.4,51.3,29.68,West,277,7.0,11.0,33,0.00,,---,0.00,VWS V14.00,2013-06-27 14:42:00,
2013-06-27 09:45:00,83.8,51.7,29.67,West,275,2.0,11.0,33,0.00,,---,0.00,VWS V14.00,2013-06-27 14:45:00,
2013-06-27 09:46:00,84.0,51.8,29.67,West,268,1.0,11.0,33,0.00,,---,0.00,VWS V14.00,2013-06-27 14:46:00,
2013-06-27 09:47:00,84.0,51.8,29.67,West,268,2.0,11.0,33,0.00,,---,0.00,VWS V14.00,2013-06-27 14:47:00,
2013-06-27 09:50:00,84.5,52.3,29.67,West,270,0.0,11.0,33,0.00,,---,0.00,VWS V14.00,2013-06-27 14:50:00,
2013-06-27 09:51:00,84.5,51.4,29.67,West,270,2.0,11.0,32,0.00,,---,0.00,VWS V14.00,2013-06-27 14:51:00,
2013-06-27 09:52:00,84.5,50.6,29.67,West,272,10.0,11.0,31,0.00,,---,0.00,VWS V14.00,2013-06-27 14:52:00,
2013-06-27 09:56:00,85.1,50.2,29.67,West,268,0.0,11.0,30,0.00,,---,0.00,VWS V14.00,2013-06-27 14:56:00,
2013-06-27 09:57:00,85.3,50.4,29.67,WSW,258,0.0,11.0,30,0.00,,---,0.00,VWS V14.00,2013-06-27 14:57:00,
2013-06-27 10:01:00,85.7,48.9,29.66,West,261,0.0,6.0,28,0.00,,---,0.00,VWS V14.00,2013-06-27 15:01:00,
2013-06-27 10:02:00,85.9,50.0,29.66,West,268,2.0,6.0,29,0.00,,---,0.00,VWS V14.00,2013-06-27 15:02:00,
2013-06-27 10:06:00,86.3,48.4,29.66,WSW,246,0.0,6.0,27,0.00,,---,0.00,VWS V14.00,2013-06-27 15:06:00,
2013-06-27 10:07:00,86.3,49.4,29.66,West,260,2.0,6.0,28,0.00,,---,0.00,VWS V14.00,2013-06-27 15:07:00,
2013-06-27 10:08:00,86.5,49.6,29.66,West,261,0.0,6.0,28,0.00,,---,0.00,VWS V14.00,2013-06-27 15:08:00,
2013-06-27 10:12:00,87.0,50.0,29.66,WSW,251,2.0,6.0,28,0.00,,---,0.00,VWS V14.00,2013-06-27 15:12:00,
2013-06-27 10:13:00,87.0,50.0,29.66,WSW,258,0.0,6.0,28,0.00,,---,0.00,VWS V14.00,2013-06-27 15:13:00,
2013-06-27 10:17:00,87.4,49.3,29.66,WSW,258,0.0,6.0,27,0.00,,---,0.00,VWS V14.00,2013-06-27 15:17:00,
2013-06-27 10:18:00,87.4,50.3,29.66,WSW,251,2.0,6.0,28,0.00,,---,0.00,VWS V14.00,2013-06-27 15:18:00,
2013-06-27 10:22:00,87.8,50.7,29.66,SSW,202,0.0,6.0,28,0.00,,---,0.00,VWS V14.00,2013-06-27 15:22:00,
2013-06-27 10:23:00,87.8,49.7,29.66,SSW,213,0.0,6.0,27,0.00,,---,0.00,VWS V14.00,2013-06-27 15:23:00,
2013-06-27 10:28:00,88.0,49.9,29.66,West,268,0.0,8.0,27,0.00,,---,0.00,VWS V14.00,2013-06-27 15:28:00,
2013-06-27 10:33:00,88.4,49.2,29.65,WSW,257,0.0,8.0,26,0.00,,---,0.00,VWS V14.00,2013-06-27 15:33:00,
2013-06-27 10:34:00,88.6,49.4,29.65,WSW,253,0.0,8.0,26,0.00,,---,0.00,VWS V14.00,2013-06-27 15:34:00,
2013-06-27 10:38:00,88.8,50.5,29.65,SW,232,0.0,8.0,27,0.00,,---,0.00,VWS V14.00,2013-06-27 15:38:00,
2013-06-27 10:39:00,88.8,50.5,29.65,SW,229,3.0,8.0,27,0.00,,---,0.00,VWS V14.00,2013-06-27 15:39:00,
2013-06-27 10:43:00,89.0,49.7,29.65,SW,222,6.0,8.0,26,0.00,,---,0.00,VWS V14.00,2013-06-27 15:43:00,
2013-06-27 10:44:00,89.3,48.9,29.64,SW,222,0.0,8.0,25,0.00,,---,0.00,VWS V14.00,2013-06-27 15:44:00,
2013-06-27 10:48:00,89.5,50.1,29.64,South,191,0.0,8.0,26,0.00,,---,0.00,VWS V14.00,2013-06-27 15:48:00,
2013-06-27 10:49:00,89.7,49.2,29.64,SSW,192,0.0,8.0,25,0.00,,---,0.00,VWS V14.00,2013-06-27 15:49:00,
2013-06-27 10:53:00,89.9,49.4,29.64,SW,217,0.0,8.0,25,0.00,,---,0.00,VWS V14.00,2013-06-27 15:53:00,
2013-06-27 10:54:00,89.9,48.3,29.64,SW,217,0.0,8.0,24,0.00,,---,0.00,VWS V14.00,2013-06-27 15:54:00,
2013-06-27 10:55:00,90.1,48.5,29.64,SW,217,0.0,8.0,24,0.00,,---,0.00,VWS V14.00,2013-06-27 15:55:00,
2013-06-27 10:58:00,90.5,48.8,29.64,SW,217,0.0,8.0,24,0.00,,---,0.00,VWS V14.00,2013-06-27 15:58:00,
2013-06-27 10:59:00,90.5,49.9,29.62,SW,217,0.0,8.0,25,0.00,,---,0.00,VWS V14.00,2013-06-27 15:59:00,
2013-06-27 11:00:00,90.7,50.1,29.62,SW,217,0.0,0.0,25,0.00,,---,0.00,VWS V14.00,2013-06-27 16:00:00,
2013-06-27 11:03:00,91.0,48.1,29.62,SW,217,0.0,0.0,23,0.00,,---,0.00,VWS V14.00,2013-06-27 16:03:00,
2013-06-27 11:04:00,91.2,48.3,29.62,SW,217,0.0,0.0,23,0.00,,---,0.00,VWS V14.00,2013-06-27 16:04:00,
2013-06-27 11:05:00,91.2,48.3,29.62,SW,217,0.0,0.0,23,0.00,,---,0.00,VWS V14.00,2013-06-27 16:05:00,
2013-06-27 11:08:00,91.6,48.6,29.62,SSW,210,0.0,0.0,23,0.00,,---,0.00,VWS V14.00,2013-06-27 16:08:00,
2013-06-27 11:09:00,91.8,48.8,29.62,SSW,208,0.0,0.0,23,0.00,,---,0.00,VWS V14.00,2013-06-27 16:09:00,
2013-06-27 11:10:00,91.8,46.3,29.62,SSW,208,0.0,0.0,21,0.00,,---,0.00,VWS V14.00,2013-06-27 16:10:00,
2013-06-27 11:13:00,91.8,45.1,29.62,SE,138,0.0,0.0,20,0.00,,---,0.00,VWS V14.00,2013-06-27 16:13:00,
2013-06-27 11:14:00,91.8,45.1,29.67,SE,138,0.0,0.0,20,0.00,,---,0.00,VWS V14.00,2013-06-27 16:14:00,
2013-06-27 11:15:00,92.1,45.3,29.67,SE,138,0.0,0.0,20,0.00,,---,0.00,VWS V14.00,2013-06-27 16:15:00,
2013-06-27 11:18:00,92.1,44.0,29.67,ESE,119,0.0,0.0,19,0.00,,---,0.00,VWS V14.00,2013-06-27 16:18:00,
2013-06-27 11:19:00,92.1,44.0,29.67,ESE,119,0.0,0.0,19,0.00,,---,0.00,VWS V14.00,2013-06-27 16:19:00,
2013-06-27 11:20:00,92.3,45.5,29.67,ESE,119,0.0,0.0,20,0.00,,---,0.00,VWS V14.00,2013-06-27 16:20:00,
2013-06-27 11:24:00,92.7,43.0,29.67,ESE,119,0.0,0.0,18,0.00,,---,0.00,VWS V14.00,2013-06-27 16:24:00,
2013-06-27 11:25:00,92.9,41.7,29.67,ESE,119,0.0,0.0,17,0.00,,---,0.00,VWS V14.00,2013-06-27 16:25:00,
2013-06-27 11:29:00,93.4,40.5,29.66,ESE,120,0.0,0.0,16,0.00,,---,0.00,VWS V14.00,2013-06-27 16:29:00,
2013-06-27 11:30:00,93.4,40.5,29.66,ESE,120,0.0,0.0,16,0.00,,---,0.00,VWS V14.00,2013-06-27 16:30:00,
2013-06-27 11:31:00,93.6,42.3,29.66,ESE,120,0.0,0.0,17,0.00,,---,0.00,VWS V14.00,2013-06-27 16:31:00,
2013-06-27 11:34:00,93.6,45.2,29.66,SE,131,5.0,6.0,19,0.00,,---,0.00,VWS V14.00,2013-06-27 16:34:00,
2013-06-27 11:35:00,93.4,45.0,29.66,West,260,0.0,7.0,19,0.00,,---,0.00,VWS V14.00,2013-06-27 16:35:00,
2013-06-27 11:36:00,93.2,43.4,29.66,West,261,0.0,7.0,18,0.00,,---,0.00,VWS V14.00,2013-06-27 16:36:00,
2013-06-27 11:39:00,93.2,47.5,29.66,WNW,288,0.0,7.0,21,0.00,,---,0.00,VWS V14.00,2013-06-27 16:39:00,
2013-06-27 11:40:00,93.4,47.7,29.66,WNW,289,0.0,7.0,21,0.00,,---,0.00,VWS V14.00,2013-06-27 16:40:00,
2013-06-27 11:41:00,93.4,47.7,29.66,ESE,110,7.0,7.0,21,0.00,,---,0.00,VWS V14.00,2013-06-27 16:41:00,
2013-06-27 11:44:00,93.4,50.1,29.65,East,88,3.0,13.0,23,0.00,,---,0.00,VWS V14.00,2013-06-27 16:44:00,
2013-06-27 11:45:00,93.4,50.1,29.65,East,90,2.0,13.0,23,0.00,,---,0.00,VWS V14.00,2013-06-27 16:45:00,
2013-06-27 11:46:00,93.4,53.4,29.65,ESE,112,6.0,13.0,26,0.00,,---,0.00,VWS V14.00,2013-06-27 16:46:00,
2013-06-27 11:50:00,92.5,54.7,29.65,SE,134,4.0,14.0,28,0.00,,---,0.00,VWS V14.00,2013-06-27 16:50:00,
2013-06-27 11:52:00,92.3,54.5,29.65,ESE,113,12.0,14.0,28,0.00,,---,0.00,VWS V14.00,2013-06-27 16:52:00,
2013-06-27 11:55:00,91.8,53.1,29.65,ESE,114,1.0,14.0,27,0.00,,---,0.00,VWS V14.00,2013-06-27 16:55:00,
2013-06-27 11:56:00,92.1,52.3,29.65,SE,140,6.0,14.0,26,0.00,,---,0.00,VWS V14.00,2013-06-27 16:56:00,
2013-06-27 11:57:00,92.1,52.3,29.65,SE,137,0.0,14.0,26,0.00,,---,0.00,VWS V14.00,2013-06-27 16:57:00,
2013-06-27 12:08:00,92.1,47.8,29.66,SE,124,10.0,13.0,22,0.00,,---,0.00,VWS V14.00,2013-06-27 17:08:00,
2013-06-27 12:09:00,91.8,47.6,29.66,ESE,123,8.0,13.0,22,0.00,,---,0.00,VWS V14.00,2013-06-27 17:09:00,
2013-06-27 12:36:00,92.3,46.8,29.69,ESE,110,0.0,11.0,21,0.00,,---,0.00,VWS V14.00,2013-06-27 17:36:00,
2013-06-27 12:41:00,92.9,48.5,29.69,ENE,78,2.0,12.0,22,0.00,,---,0.00,VWS V14.00,2013-06-27 17:41:00,
2013-06-27 12:42:00,92.9,48.5,29.69,SE,130,5.0,12.0,22,0.00,,---,0.00,VWS V14.00,2013-06-27 17:42:00,
2013-06-27 12:46:00,92.9,47.2,29.69,ESE,113,5.0,13.0,21,0.00,,---,0.00,VWS V14.00,2013-06-27 17:46:00,
2013-06-27 12:47:00,93.4,47.7,29.69,ESE,113,0.0,13.0,21,0.00,,---,0.00,VWS V14.00,2013-06-27 17:47:00,
2013-06-27 12:52:00,92.9,47.2,29.69,SE,145,0.0,13.0,21,0.00,,---,0.00,VWS V14.00,2013-06-27 17:52:00,
2013-06-27 12:57:00,93.6,47.8,29.69,ESE,113,0.0,13.0,21,0.00,,---,0.00,VWS V14.00,2013-06-27 17:57:00,
2013-06-27 13:02:00,93.6,45.2,29.68,ESE,103,3.0,11.0,19,0.00,,---,0.00,VWS V14.00,2013-06-27 18:02:00,
2013-06-27 13:07:00,94.3,45.8,29.68,NE,48,0.0,11.0,19,0.00,,---,0.00,VWS V14.00,2013-06-27 18:07:00,
2013-06-27 13:08:00,94.3,45.8,29.68,NE,49,0.0,11.0,19,0.00,,---,0.00,VWS V14.00,2013-06-27 18:08:00,
2013-06-27 13:12:00,94.5,45.9,29.68,SSE,152,0.0,12.0,19,0.00,,---,0.00,VWS V14.00,2013-06-27 18:12:00,
2013-06-27 13:13:00,94.5,47.3,29.68,ENE,73,0.0,12.0,20,0.00,,---,0.00,VWS V14.00,2013-06-27 18:13:00,
2013-06-27 13:17:00,94.5,44.5,29.68,ESE,114,5.0,13.0,18,0.00,,---,0.00,VWS V14.00,2013-06-27 18:17:00,
2013-06-27 13:18:00,94.3,44.3,29.68,ESE,114,2.0,13.0,18,0.00,,---,0.00,VWS V14.00,2013-06-27 18:18:00,
2013-06-27 13:22:00,94.9,44.8,29.68,East,88,0.0,13.0,18,0.00,,---,0.00,VWS V14.00,2013-06-27 18:22:00,
2013-06-27 13:23:00,94.9,44.8,29.68,East,88,0.0,13.0,18,0.00,,---,0.00,VWS V14.00,2013-06-27 18:23:00,
2013-06-27 13:27:00,94.9,44.8,29.68,East,96,0.0,13.0,18,0.00,,---,0.00,VWS V14.00,2013-06-27 18:27:00,
2013-06-27 13:28:00,94.9,44.8,29.68,East,96,0.0,13.0,18,0.00,,---,0.00,VWS V14.00,2013-06-27 18:28:00,
2013-06-27 13:33:00,95.1,45.0,29.68,ENE,66,0.0,7.0,18,0.00,,---,0.00,VWS V14.00,2013-06-27 18:33:00,
2013-06-27 13:38:00,94.9,44.8,29.68,NE,38,0.0,7.0,18,0.00,,---,0.00,VWS V14.00,2013-06-27 18:38:00,
2013-06-27 13:43:00,95.4,43.7,29.68,NNE,31,0.0,7.0,17,0.00,,---,0.00,VWS V14.00,2013-06-27 18:43:00,
2013-06-27 13:48:00,95.9,44.1,29.67,WNW,295,0.0,7.0,17,0.00,,---,0.00,VWS V14.00,2013-06-27 18:48:00,
2013-06-27 13:49:00,95.9,44.1,29.67,WNW,291,0.0,7.0,17,0.00,,---,0.00,VWS V14.00,2013-06-27 18:49:00,
2013-06-27 13:53:00,96.1,42.7,29.67,ESE,103,2.0,10.0,16,0.00,,---,0.00,VWS V14.00,2013-06-27 18:53:00,
2013-06-27 13:54:00,95.9,42.5,29.67,ESE,106,2.0,10.0,16,0.00,,---,0.00,VWS V14.00,2013-06-27 18:54:00,
2013-06-27 13:58:00,96.1,44.3,29.67,ENE,64,4.0,10.0,17,0.00,,---,0.00,VWS V14.00,2013-06-27 18:58:00,
2013-06-27 13:59:00,95.9,44.1,29.67,ENE,68,5.0,10.0,17,0.00,,---,0.00,VWS V14.00,2013-06-27 18:59:00,
2013-06-27 14:03:00,95.6,42.3,29.67,ESE,119,0.0,13.0,16,0.00,,---,0.00,VWS V14.00,2013-06-27 19:03:00,
2013-06-27 14:04:00,95.9,42.5,29.67,ESE,119,0.0,13.0,16,0.00,,---,0.00,VWS V14.00,2013-06-27 19:04:00,
2013-06-27 14:05:00,95.9,44.1,29.67,SE,133,7.0,13.0,17,0.00,,---,0.00,VWS V14.00,2013-06-27 19:05:00,
2013-06-27 14:09:00,96.1,44.3,29.67,East,88,0.0,13.0,17,0.00,,---,0.00,VWS V14.00,2013-06-27 19:09:00,
2013-06-27 14:10:00,96.1,44.3,29.67,East,82,0.0,13.0,17,0.00,,---,0.00,VWS V14.00,2013-06-27 19:10:00,
2013-06-27 14:14:00,95.4,43.7,29.67,ESE,114,7.0,13.0,17,0.00,,---,0.00,VWS V14.00,2013-06-27 19:14:00,
2013-06-27 14:15:00,95.1,43.5,29.67,ESE,112,5.0,13.0,17,0.00,,---,0.00,VWS V14.00,2013-06-27 19:15:00,
2013-06-27 14:19:00,94.0,44.1,29.67,ESE,103,0.0,13.0,18,0.00,,---,0.00,VWS V14.00,2013-06-27 19:19:00,
2013-06-27 14:20:00,94.3,44.3,29.67,NNE,32,0.0,13.0,18,0.00,,---,0.00,VWS V14.00,2013-06-27 19:20:00,
2013-06-27 14:24:00,95.1,45.0,29.67,NNE,30,0.0,13.0,18,0.00,,---,0.00,VWS V14.00,2013-06-27 19:24:00,
2013-06-27 14:25:00,95.4,45.2,29.67,NNE,30,0.0,13.0,18,0.00,,---,0.00,VWS V14.00,2013-06-27 19:25:00,
2013-06-27 14:29:00,95.6,43.9,29.67,East,95,0.0,13.0,17,0.00,,---,0.00,VWS V14.00,2013-06-27 19:29:00,
2013-06-27 14:30:00,95.6,43.9,29.67,East,89,8.0,8.0,17,0.00,,---,0.00,VWS V14.00,2013-06-27 19:30:00,
2013-06-27 14:34:00,95.6,43.9,29.67,North,356,0.0,8.0,17,0.00,,---,0.00,VWS V14.00,2013-06-27 19:34:00,
2013-06-27 14:35:00,95.4,43.7,29.67,North,356,0.0,8.0,17,0.00,,---,0.00,VWS V14.00,2013-06-27 19:35:00,
2013-06-27 14:36:00,95.4,45.2,29.67,North,0,0.0,8.0,18,0.00,,---,0.00,VWS V14.00,2013-06-27 19:36:00,
2013-06-27 14:39:00,95.6,43.9,29.67,East,89,5.0,9.0,17,0.00,,---,0.00,VWS V14.00,2013-06-27 19:39:00,
2013-06-27 14:40:00,95.6,43.9,29.67,East,83,0.0,9.0,17,0.00,,---,0.00,VWS V14.00,2013-06-27 19:40:00,
2013-06-27 14:41:00,95.9,44.1,29.67,East,79,2.0,9.0,17,0.00,,---,0.00,VWS V14.00,2013-06-27 19:41:00,
2013-06-27 14:45:00,95.6,42.3,29.66,NE,40,0.0,12.0,16,0.00,,---,0.00,VWS V14.00,2013-06-27 19:45:00,
2013-06-27 14:46:00,96.1,45.8,29.66,NE,41,0.0,12.0,18,0.00,,---,0.00,VWS V14.00,2013-06-27 19:46:00,
2013-06-27 14:50:00,97.1,43.5,29.66,East,100,2.0,12.0,16,0.00,,---,0.00,VWS V14.00,2013-06-27 19:50:00,
2013-06-27 14:51:00,96.8,41.6,29.66,ESE,103,0.0,12.0,15,0.00,,---,0.00,VWS V14.00,2013-06-27 19:51:00,
2013-06-27 14:54:00,96.6,43.1,29.66,NE,42,0.0,12.0,16,0.00,,---,0.00,VWS V14.00,2013-06-27 19:54:00,
2013-06-27 14:55:00,96.6,43.1,29.66,NE,42,0.0,12.0,16,0.00,,---,0.00,VWS V14.00,2013-06-27 19:55:00,
2013-06-27 14:56:00,96.8,43.3,29.66,NE,51,4.0,12.0,16,0.00,,---,0.00,VWS V14.00,2013-06-27 19:56:00,
2013-06-27 15:00:00,96.6,43.1,29.66,NNE,24,3.0,3.0,16,0.00,,---,0.00,VWS V14.00,2013-06-27 20:00:00,
2013-06-27 15:01:00,96.6,44.7,29.66,NE,41,6.0,8.0,17,0.00,,---,0.00,VWS V14.00,2013-06-27 20:01:00,
2013-06-27 15:05:00,96.8,43.3,29.66,NNE,23,1.0,8.0,16,0.00,,---,0.00,VWS V14.00,2013-06-27 20:05:00,
2013-06-27 15:06:00,97.1,43.5,29.66,NE,42,2.0,8.0,16,0.00,,---,0.00,VWS V14.00,2013-06-27 20:06:00,
2013-06-27 15:10:00,96.6,43.1,29.66,East,92,7.0,8.0,16,0.00,,---,0.00,VWS V14.00,2013-06-27 20:10:00,
2013-06-27 15:12:00,96.1,42.7,29.66,East,80,0.0,8.0,16,0.00,,---,0.00,VWS V14.00,2013-06-27 20:12:00,
2013-06-27 15:15:00,96.3,44.4,29.67,East,99,7.0,8.0,17,0.00,,---,0.00,VWS V14.00,2013-06-27 20:15:00,
2013-06-27 15:17:00,96.8,43.3,29.67,ENE,62,1.0,8.0,16,0.00,,---,0.00,VWS V14.00,2013-06-27 20:17:00,
2013-06-27 15:20:00,96.8,44.8,29.67,ESE,102,13.0,13.0,17,0.00,,---,0.00,VWS V14.00,2013-06-27 20:20:00,
2013-06-27 15:22:00,96.6,43.1,29.67,ESE,107,0.0,13.0,16,0.00,,---,0.00,VWS V14.00,2013-06-27 20:22:00,
2013-06-27 15:25:00,96.8,44.8,29.67,East,93,7.0,13.0,17,0.00,,---,0.00,VWS V14.00,2013-06-27 20:25:00,
2013-06-27 15:26:00,96.8,44.8,29.67,East,82,6.0,13.0,17,0.00,,---,0.00,VWS V14.00,2013-06-27 20:26:00,
2013-06-27 15:27:00,96.8,44.8,29.67,ESE,104,0.0,13.0,17,0.00,,---,0.00,VWS V14.00,2013-06-27 20:27:00,
2013-06-27 15:31:00,96.8,44.8,29.65,NNE,32,5.0,8.0,17,0.00,,---,0.00,VWS V14.00,2013-06-27 20:31:00,
2013-06-27 15:32:00,96.8,44.8,29.65,NNE,31,0.0,8.0,17,0.00,,---,0.00,VWS V14.00,2013-06-27 20:32:00,
2013-06-27 15:36:00,97.3,45.2,29.65,East,96,0.0,8.0,17,0.00,,---,0.00,VWS V14.00,2013-06-27 20:36:00,
2013-06-27 15:37:00,96.6,43.1,29.65,ENE,71,6.0,11.0,16,0.00,,---,0.00,VWS V14.00,2013-06-27 20:37:00,
2013-06-27 15:39:00,95.1,43.5,29.65,ESE,116,6.0,13.0,17,0.00,,---,0.00,VWS V14.00,2013-06-27 20:39:00,
2013-06-27 15:41:00,94.9,43.3,29.65,East,95,5.0,13.0,17,0.00,,---,0.00,VWS V14.00,2013-06-27 20:41:00,
2013-06-27 15:42:00,94.7,41.6,29.65,ESE,112,2.0,13.0,16,0.00,,---,0.00,VWS V14.00,2013-06-27 20:42:00,
2013-06-27 15:44:00,94.5,41.4,29.66,ESE,120,6.0,13.0,16,0.00,,---,0.00,VWS V14.00,2013-06-27 20:44:00,
2013-06-27 15:46:00,94.7,41.6,29.66,NE,52,0.0,13.0,16,0.00,,---,0.00,VWS V14.00,2013-06-27 20:46:00,
2013-06-27 15:47:00,94.5,43.0,29.66,East,80,7.0,13.0,17,0.00,,---,0.00,VWS V14.00,2013-06-27 20:47:00,
2013-06-27 15:49:00,94.3,42.8,29.66,NE,55,0.0,13.0,17,0.00,,---,0.00,VWS V14.00,2013-06-27 20:49:00,
2013-06-27 15:51:00,94.0,42.6,29.66,ENE,73,3.0,13.0,17,0.00,,---,0.00,VWS V14.00,2013-06-27 20:51:00,
2013-06-27 15:53:00,94.7,43.2,29.66,NE,56,1.0,13.0,17,0.00,,---,0.00,VWS V14.00,2013-06-27 20:53:00,
2013-06-27 15:54:00,94.7,43.2,29.66,ENE,65,2.0,13.0,17,0.00,,---,0.00,VWS V14.00,2013-06-27 20:54:00,
2013-06-27 15:55:00,94.9,43.3,29.66,ENE,61,0.0,13.0,17,0.00,,---,0.00,VWS V14.00,2013-06-27 20:55:00,
2013-06-27 15:58:00,94.7,43.2,29.66,NE,48,5.0,13.0,17,0.00,,---,0.00,VWS V14.00,2013-06-27 20:58:00,
2013-06-27 15:59:00,95.1,45.0,29.66,NE,35,1.0,13.0,18,0.00,,---,0.00,VWS V14.00,2013-06-27 20:59:00,
2013-06-27 16:00:00,95.4,43.7,29.66,NE,41,0.0,2.0,17,0.00,,---,0.00,VWS V14.00,2013-06-27 21:00:00,
2013-06-27 16:04:00,95.6,43.9,29.66,North,7,0.0,11.0,17,0.00,,---,0.00,VWS V14.00,2013-06-27 21:04:00,
2013-06-27 16:05:00,95.6,43.9,29.66,NE,54,6.0,11.0,17,0.00,,---,0.00,VWS V14.00,2013-06-27 21:05:00,
2013-06-27 16:09:00,95.6,43.9,29.66,ENE,62,6.0,14.0,17,0.00,,---,0.00,VWS V14.00,2013-06-27 21:09:00,
2013-06-27 16:10:00,95.6,43.9,29.66,East,86,0.0,14.0,17,0.00,,---,0.00,VWS V14.00,2013-06-27 21:10:00,
2013-06-27 16:14:00,96.3,42.9,29.66,East,82,1.0,14.0,16,0.00,,---,0.00,VWS V14.00,2013-06-27 21:14:00,
2013-06-27 16:15:00,96.6,43.1,29.66,East,83,1.0,14.0,16,0.00,,---,0.00,VWS V14.00,2013-06-27 21:15:00,
2013-06-27 16:16:00,96.6,43.1,29.66,NE,52,0.0,14.0,16,0.00,,---,0.00,VWS V14.00,2013-06-27 21:16:00,
2013-06-27 16:20:00,97.3,43.7,29.66,ESE,119,3.0,14.0,16,0.00,,---,0.00,VWS V14.00,2013-06-27 21:20:00,
2013-06-27 16:21:00,97.1,41.8,29.66,East,88,1.0,14.0,15,0.00,,---,0.00,VWS V14.00,2013-06-27 21:21:00,
2013-06-27 16:25:00,97.1,41.8,29.66,NE,37,0.0,14.0,15,0.00,,---,0.00,VWS V14.00,2013-06-27 21:25:00,
2013-06-27 16:26:00,97.1,41.8,29.66,NE,49,0.0,14.0,15,0.00,,---,0.00,VWS V14.00,2013-06-27 21:26:00,
2013-06-27 16:27:00,96.8,41.6,29.66,NE,51,0.0,14.0,15,0.00,,---,0.00,VWS V14.00,2013-06-27 21:27:00,
2013-06-27 16:31:00,95.1,43.5,29.67,NE,52,0.0,2.0,17,0.00,,---,0.00,VWS V14.00,2013-06-27 21:31:00,
2013-06-27 16:32:00,94.7,41.6,29.67,NE,52,0.0,2.0,16,0.00,,---,0.00,VWS V14.00,2013-06-27 21:32:00,
2013-06-27 16:36:00,93.8,42.4,29.67,ESE,102,2.0,2.0,17,0.00,,---,0.00,VWS V14.00,2013-06-27 21:36:00,
2013-06-27 16:37:00,93.2,43.4,29.67,East,95,7.0,12.0,18,0.00,,---,0.00,VWS V14.00,2013-06-27 21:37:00,
2013-06-27 16:38:00,93.2,43.4,29.67,East,96,4.0,12.0,18,0.00,,---,0.00,VWS V14.00,2013-06-27 21:38:00,
2013-06-27 16:41:00,92.9,41.7,29.67,ESE,109,0.0,12.0,17,0.00,,---,0.00,VWS V14.00,2013-06-27 21:41:00,
2013-06-27 16:42:00,92.5,42.9,29.67,ESE,114,1.0,12.0,18,0.00,,---,0.00,VWS V14.00,2013-06-27 21:42:00,
2013-06-27 16:43:00,92.5,42.9,29.67,ESE,110,0.0,12.0,18,0.00,,---,0.00,VWS V14.00,2013-06-27 21:43:00,
2013-06-27 16:46:00,92.5,42.9,29.69,NE,52,0.0,12.0,18,0.00,,---,0.00,VWS V14.00,2013-06-27 21:46:00,
2013-06-27 16:48:00,92.5,42.9,29.69,East,86,0.0,12.0,18,0.00,,---,0.00,VWS V14.00,2013-06-27 21:48:00,
2013-06-27 16:49:00,92.5,42.9,29.69,East,86,0.0,12.0,18,0.00,,---,0.00,VWS V14.00,2013-06-27 21:49:00,
2013-06-27 16:51:00,92.5,42.9,29.69,East,90,0.0,12.0,18,0.00,,---,0.00,VWS V14.00,2013-06-27 21:51:00,
2013-06-27 16:53:00,92.1,44.0,29.69,East,90,0.0,12.0,19,0.00,,---,0.00,VWS V14.00,2013-06-27 21:53:00,
2013-06-27 16:54:00,91.8,43.7,29.69,East,90,0.0,12.0,19,0.00,,---,0.00,VWS V14.00,2013-06-27 21:54:00,
2013-06-27 16:55:00,91.6,44.9,29.69,North,359,1.0,12.0,20,0.00,,---,0.00,VWS V14.00,2013-06-27 21:55:00,
2013-06-27 16:57:00,90.7,45.4,29.69,SSW,196,0.0,12.0,21,0.00,,---,0.00,VWS V14.00,2013-06-27 21:57:00,
2013-06-27 16:59:00,89.9,47.2,29.71,SSW,205,0.0,12.0,23,0.00,,---,0.00,VWS V14.00,2013-06-27 21:59:00,
2013-06-27 17:00:00,89.9,47.2,29.71,SSW,206,0.0,0.0,23,0.00,,---,0.00,VWS V14.00,2013-06-27 22:00:00,
2013-06-27 17:02:00,89.0,46.4,29.71,SSW,213,7.0,8.0,23,0.00,,---,0.00,VWS V14.00,2013-06-27 22:02:00,
2013-06-27 17:04:00,88.0,48.8,29.71,WSW,246,11.0,11.0,26,0.00,,---,0.00,VWS V14.00,2013-06-27 22:04:00,
2013-06-27 17:05:00,87.6,48.5,29.71,WSW,239,5.0,14.0,26,0.00,,---,0.00,VWS V14.00,2013-06-27 22:05:00,
2013-06-27 17:06:00,87.2,47.1,29.71,SW,224,14.0,14.0,25,0.00,,---,0.00,VWS V14.00,2013-06-27 22:06:00,
2013-06-27 17:07:00,86.5,47.6,29.71,WSW,244,8.0,14.0,26,0.00,,---,0.00,VWS V14.00,2013-06-27 22:07:00,
2013-06-27 17:11:00,85.5,46.7,29.71,SW,224,0.0,14.0,26,0.00,,---,0.00,VWS V14.00,2013-06-27 22:11:00,
2013-06-27 17:12:00,85.3,46.6,29.71,SW,230,0.0,14.0,26,0.00,,---,0.00,VWS V14.00,2013-06-27 22:12:00,
2013-06-27 17:13:00,85.3,46.6,29.71,SW,224,0.0,14.0,26,0.00,,---,0.00,VWS V14.00,2013-06-27 22:13:00,
2013-06-27 17:16:00,84.7,46.1,29.75,West,261,4.0,14.0,26,0.00,,---,0.00,VWS V14.00,2013-06-27 22:16:00,
2013-06-27 17:17:00,84.5,45.9,29.75,WSW,248,5.0,14.0,26,0.00,,---,0.00,VWS V14.00,2013-06-27 22:17:00,
2013-06-27 17:18:00,84.5,45.9,29.75,SSW,200,5.0,14.0,26,0.00,,---,0.00,VWS V14.00,2013-06-27 22:18:00,
2013-06-27 17:21:00,84.3,46.7,29.75,SW,224,6.0,14.0,27,0.00,,---,0.00,VWS V14.00,2013-06-27 22:21:00,
2013-06-27 17:23:00,84.3,46.7,29.75,SSW,212,7.0,14.0,27,0.00,,---,0.00,VWS V14.00,2013-06-27 22:23:00,
2013-06-27 17:24:00,84.3,46.7,29.75,WSW,250,5.0,14.0,27,0.00,,---,0.00,VWS V14.00,2013-06-27 22:24:00,
2013-06-27 17:26:00,84.3,45.7,29.75,SW,216,4.0,14.0,26,0.00,,---,0.00,VWS V14.00,2013-06-27 22:26:00,
2013-06-27 17:28:00,84.5,43.8,29.75,SSW,208,7.0,14.0,24,0.00,,---,0.00,VWS V14.00,2013-06-27 22:28:00,
2013-06-27 17:29:00,84.5,43.8,29.75,SW,222,7.0,14.0,24,0.00,,---,0.00,VWS V14.00,2013-06-27 22:29:00,
2013-06-27 17:31:00,84.5,43.8,29.75,SW,222,6.0,11.0,24,0.00,,---,0.00,VWS V14.00,2013-06-27 22:31:00,
2013-06-27 17:33:00,84.5,41.5,29.75,SW,223,10.0,11.0,22,0.00,,---,0.00,VWS V14.00,2013-06-27 22:33:00,
2013-06-27 17:34:00,84.5,43.8,29.75,SSW,210,6.0,11.0,24,0.00,,---,0.00,VWS V14.00,2013-06-27 22:34:00,
2013-06-27 17:36:00,84.5,43.8,29.75,SW,232,0.0,13.0,24,0.00,,---,0.00,VWS V14.00,2013-06-27 22:36:00,
2013-06-27 17:38:00,84.3,43.6,29.75,SW,215,12.0,13.0,24,0.00,,---,0.00,VWS V14.00,2013-06-27 22:38:00,
2013-06-27 17:39:00,84.5,42.7,29.75,SW,217,7.0,13.0,23,0.00,,---,0.00,VWS V14.00,2013-06-27 22:39:00,
2013-06-27 17:40:00,84.5,42.7,29.75,SW,230,8.0,13.0,23,0.00,,---,0.00,VWS V14.00,2013-06-27 22:40:00,
2013-06-27 17:42:00,84.5,42.7,29.75,SW,219,5.0,13.0,23,0.00,,---,0.00,VWS V14.00,2013-06-27 22:42:00,
2013-06-27 17:43:00,84.5,42.7,29.75,WSW,246,6.0,13.0,23,0.00,,---,0.00,VWS V14.00,2013-06-27 22:43:00,
2013-06-27 17:45:00,84.5,43.8,29.76,SW,234,3.0,13.0,24,0.00,,---,0.00,VWS V14.00,2013-06-27 22:45:00,
2013-06-27 17:47:00,84.7,44.0,29.76,South,188,6.0,13.0,24,0.00,,---,0.00,VWS V14.00,2013-06-27 22:47:00,
2013-06-27 17:48:00,84.9,44.1,29.76,SW,217,5.0,13.0,24,0.00,,---,0.00,VWS V14.00,2013-06-27 22:48:00,
2013-06-27 17:50:00,84.9,45.2,29.76,SSW,206,6.0,13.0,25,0.00,,---,0.00,VWS V14.00,2013-06-27 22:50:00,
2013-06-27 17:52:00,84.9,45.2,29.76,WSW,258,0.0,13.0,25,0.00,,---,0.00,VWS V14.00,2013-06-27 22:52:00,
2013-06-27 17:54:00,85.1,45.4,29.76,WSW,241,2.0,13.0,25,0.00,,---,0.00,VWS V14.00,2013-06-27 22:54:00,
2013-06-27 17:55:00,85.1,45.4,29.76,West,271,2.0,13.0,25,0.00,,---,0.00,VWS V14.00,2013-06-27 22:55:00,
2013-06-27 17:58:00,85.1,45.4,29.76,SW,227,0.0,13.0,25,0.00,,---,0.00,VWS V14.00,2013-06-27 22:58:00,
2013-06-27 17:59:00,85.1,45.4,29.75,SSW,205,0.0,0.0,25,0.00,,---,0.00,VWS V14.00,2013-06-27 22:59:00,
2013-06-27 18:00:00,85.1,45.4,29.75,SSW,205,5.0,7.0,25,0.00,,---,0.00,VWS V14.00,2013-06-27 23:00:00,
2013-06-27 18:01:00,85.3,45.5,29.75,SSW,206,9.0,9.0,25,0.00,,---,0.00,VWS V14.00,2013-06-27 23:01:00,
2013-06-27 18:03:00,85.3,45.5,29.75,SSW,206,3.0,9.0,25,0.00,,---,0.00,VWS V14.00,2013-06-27 23:03:00,
2013-06-27 18:05:00,85.3,45.5,29.75,SSW,200,0.0,9.0,25,0.00,,---,0.00,VWS V14.00,2013-06-27 23:05:00,
2013-06-27 18:06:00,85.3,45.5,29.75,SSW,202,3.0,9.0,25,0.00,,---,0.00,VWS V14.00,2013-06-27 23:06:00,
2013-06-27 18:08:00,85.5,45.7,29.75,SSW,192,6.0,9.0,25,0.00,,---,0.00,VWS V14.00,2013-06-27 23:08:00,
2013-06-27 18:10:00,85.7,45.9,29.75,SSW,195,0.0,9.0,25,0.00,,---,0.00,VWS V14.00,2013-06-27 23:10:00,
2013-06-27 18:11:00,85.7,45.9,29.75,SSW,195,0.0,9.0,25,0.00,,---,0.00,VWS V14.00,2013-06-27 23:11:00,
2013-06-27 18:13:00,85.9,45.0,29.75,SSW,202,8.0,10.0,24,0.00,,---,0.00,VWS V14.00,2013-06-27 23:13:00,
2013-06-27 18:15:00,86.1,46.2,29.74,SSW,209,6.0,11.0,25,0.00,,---,0.00,VWS V14.00,2013-06-27 23:15:00,
2013-06-27 18:16:00,86.1,45.1,29.74,South,188,6.0,11.0,24,0.00,,---,0.00,VWS V14.00,2013-06-27 23:16:00,
2013-06-27 18:18:00,86.1,45.1,29.74,SSW,202,0.0,11.0,24,0.00,,---,0.00,VWS V14.00,2013-06-27 23:18:00,
2013-06-27 18:20:00,86.3,45.3,29.74,SSW,202,6.0,11.0,24,0.00,,---,0.00,VWS V14.00,2013-06-27 23:20:00,
2013-06-27 18:22:00,86.3,45.3,29.74,SSW,202,0.0,11.0,24,0.00,,---,0.00,VWS V14.00,2013-06-27 23:22:00,
2013-06-27 18:23:00,86.3,45.3,29.74,SSW,202,0.0,11.0,24,0.00,,---,0.00,VWS V14.00,2013-06-27 23:23:00,
2013-06-27 18:26:00,86.3,45.3,29.74,SSW,202,0.0,11.0,24,0.00,,---,0.00,VWS V14.00,2013-06-27 23:26:00,
2013-06-27 18:27:00,86.3,46.4,29.74,SSW,202,0.0,11.0,25,0.00,,---,0.00,VWS V14.00,2013-06-27 23:27:00,
2013-06-27 18:28:00,86.5,45.5,29.74,SSW,202,0.0,11.0,24,0.00,,---,0.00,VWS V14.00,2013-06-27 23:28:00,
2013-06-27 18:31:00,86.5,45.5,29.73,SSW,202,0.0,0.0,24,0.00,,---,0.00,VWS V14.00,2013-06-27 23:31:00,
2013-06-27 18:32:00,86.7,45.6,29.73,SSW,202,0.0,0.0,24,0.00,,---,0.00,VWS V14.00,2013-06-27 23:32:00,
2013-06-27 18:33:00,86.7,45.6,29.73,SSW,202,0.0,0.0,24,0.00,,---,0.00,VWS V14.00,2013-06-27 23:33:00,
2013-06-27 18:36:00,87.0,45.9,29.73,SSW,202,0.0,0.0,24,0.00,,---,0.00,VWS V14.00,2013-06-27 23:36:00,
2013-06-27 18:38:00,87.0,44.8,29.73,SSW,202,0.0,0.0,23,0.00,,---,0.00,VWS V14.00,2013-06-27 23:38:00,
2013-06-27 18:41:00,87.4,45.1,29.73,SSW,202,0.0,0.0,23,0.00,,---,0.00,VWS V14.00,2013-06-27 23:41:00,
2013-06-27 18:43:00,87.6,45.3,29.73,SSW,202,0.0,0.0,23,0.00,,---,0.00,VWS V14.00,2013-06-27 23:43:00,
2013-06-27 18:44:00,87.6,45.3,29.72,SSW,202,0.0,0.0,23,0.00,,---,0.00,VWS V14.00,2013-06-27 23:44:00,
2013-06-27 18:46:00,88.0,45.6,29.72,SSW,202,0.0,0.0,23,0.00,,---,0.00,VWS V14.00,2013-06-27 23:46:00,
2013-06-27 18:49:00,88.2,43.4,29.72,SSW,208,0.0,0.0,21,0.00,,---,0.00,VWS V14.00,2013-06-27 23:49:00,
2013-06-27 18:51:00,88.6,44.9,29.72,SSW,208,0.0,0.0,22,0.00,,---,0.00,VWS V14.00,2013-06-27 23:51:00,
2013-06-27 18:54:00,89.3,43.0,29.72,SSW,208,0.0,0.0,20,0.00,,---,0.00,VWS V14.00,2013-06-27 23:54:00,
2013-06-27 18:55:00,89.5,43.2,29.72,SSW,208,0.0,0.0,20,0.00,,---,0.00,VWS V14.00,2013-06-27 23:55:00,
2013-06-27 18:56:00,89.7,43.3,29.72,SSW,208,0.0,0.0,20,0.00,,---,0.00,VWS V14.00,2013-06-27 23:56:00,
2013-06-27 18:59:00,89.9,43.5,29.70,SSW,208,0.0,0.0,20,0.00,,---,0.00,VWS V14.00,2013-06-27 23:59:00,
2013-06-27 19:00:00,90.1,43.7,29.70,SSW,208,0.0,0.0,20,0.00,,---,0.00,VWS V14.00,2013-06-28 00:00:00,
2013-06-27 19:02:00,90.3,43.8,29.70,SSW,208,0.0,0.0,20,0.00,,---,0.00,VWS V14.00,2013-06-28 00:02:00,
2013-06-27 19:04:00,90.3,42.5,29.70,South,191,0.0,0.0,19,0.00,,---,0.00,VWS V14.00,2013-06-28 00:04:00,
2013-06-27 19:05:00,90.5,42.7,29.70,SSW,199,0.0,0.0,19,0.00,,---,0.00,VWS V14.00,2013-06-28 00:05:00,
2013-06-27 19:06:00,90.5,42.7,29.70,SSW,199,0.0,0.0,19,0.00,,---,0.00,VWS V14.00,2013-06-28 00:06:00,
2013-06-27 19:07:00,90.5,42.7,29.70,SW,217,0.0,0.0,19,0.00,,---,0.00,VWS V14.00,2013-06-28 00:07:00,
2013-06-27 19:10:00,90.7,44.2,29.70,SW,217,0.0,0.0,20,0.00,,---,0.00,VWS V14.00,2013-06-28 00:10:00,
2013-06-27 19:11:00,90.7,42.8,29.70,SSW,212,0.0,0.0,19,0.00,,---,0.00,VWS V14.00,2013-06-28 00:11:00,
2013-06-27 19:13:00,90.7,42.8,29.70,SSW,212,0.0,0.0,19,0.00,,---,0.00,VWS V14.00,2013-06-28 00:13:00,
2013-06-27 19:15:00,90.7,41.4,29.68,South,181,0.0,5.0,18,0.00,,---,0.00,VWS V14.00,2013-06-28 00:15:00,
2013-06-27 19:17:00,90.5,42.7,29.68,South,181,0.0,5.0,19,0.00,,---,0.00,VWS V14.00,2013-06-28 00:17:00,
2013-06-27 19:18:00,90.5,42.7,29.68,South,179,0.0,5.0,19,0.00,,---,0.00,VWS V14.00,2013-06-28 00:18:00,
2013-06-27 19:21:00,90.5,42.7,29.68,ESE,112,0.0,5.0,19,0.00,,---,0.00,VWS V14.00,2013-06-28 00:21:00,
2013-06-27 19:22:00,90.5,42.7,29.68,SSE,150,2.0,6.0,19,0.00,,---,0.00,VWS V14.00,2013-06-28 00:22:00,
2013-06-27 19:24:00,90.5,42.7,29.68,SE,130,0.0,6.0,19,0.00,,---,0.00,VWS V14.00,2013-06-28 00:24:00,
2013-06-27 19:26:00,90.5,42.7,29.68,SSE,147,0.0,6.0,19,0.00,,---,0.00,VWS V14.00,2013-06-28 00:26:00,
2013-06-27 19:27:00,90.5,42.7,29.68,SE,133,3.0,6.0,19,0.00,,---,0.00,VWS V14.00,2013-06-28 00:27:00,
2013-06-27 19:28:00,90.3,42.5,29.69,SE,134,0.0,6.0,19,0.00,,---,0.00,VWS V14.00,2013-06-28 00:28:00,
2013-06-27 19:29:00,90.3,42.5,29.69,SE,134,2.0,6.0,19,0.00,,---,0.00,VWS V14.00,2013-06-28 00:29:00,
2013-06-27 19:31:00,90.3,42.5,29.69,SE,140,0.0,3.0,19,0.00,,---,0.00,VWS V14.00,2013-06-28 00:31:00,
2013-06-27 19:33:00,90.1,42.3,29.69,SSE,158,1.0,6.0,19,0.00,,---,0.00,VWS V14.00,2013-06-28 00:33:00,
2013-06-27 19:34:00,90.1,40.9,29.69,South,184,2.0,6.0,18,0.00,,---,0.00,VWS V14.00,2013-06-28 00:34:00,
2013-06-27 19:36:00,90.1,42.3,29.69,SSE,158,0.0,10.0,19,0.00,,---,0.00,VWS V14.00,2013-06-28 00:36:00,
2013-06-27 19:38:00,90.1,42.3,29.69,South,182,0.0,10.0,19,0.00,,---,0.00,VWS V14.00,2013-06-28 00:38:00,
2013-06-27 19:39:00,90.1,42.3,29.69,South,179,0.0,10.0,19,0.00,,---,0.00,VWS V14.00,2013-06-28 00:39:00,
2013-06-27 19:41:00,89.9,42.2,29.69,SE,144,0.0,10.0,19,0.00,,---,0.00,VWS V14.00,2013-06-28 00:41:00,
2013-06-27 19:43:00,89.9,42.2,29.69,South,179,5.0,10.0,19,0.00,,---,0.00,VWS V14.00,2013-06-28 00:43:00,
2013-06-27 19:44:00,89.9,43.5,29.69,SSE,161,0.0,10.0,20,0.00,,---,0.00,VWS V14.00,2013-06-28 00:44:00,
2013-06-27 19:47:00,89.7,42.0,29.69,SSE,147,1.0,10.0,19,0.00,,---,0.00,VWS V14.00,2013-06-28 00:47:00,
2013-06-27 19:48:00,89.7,42.0,29.69,SSE,147,0.0,10.0,19,0.00,,---,0.00,VWS V14.00,2013-06-28 00:48:00,
2013-06-27 19:50:00,89.5,41.8,29.69,SSE,148,1.0,10.0,19,0.00,,---,0.00,VWS V14.00,2013-06-28 00:50:00,
2013-06-27 19:51:00,89.5,41.8,29.69,SSE,148,0.0,10.0,19,0.00,,---,0.00,VWS V14.00,2013-06-28 00:51:00,
2013-06-27 19:53:00,89.5,41.8,29.69,SSE,148,0.0,10.0,19,0.00,,---,0.00,VWS V14.00,2013-06-28 00:53:00,
2013-06-27 19:55:00,89.5,41.8,29.69,SSE,148,0.0,10.0,19,0.00,,---,0.00,VWS V14.00,2013-06-28 00:55:00,
2013-06-27 19:56:00,89.3,41.7,29.69,SSE,148,0.0,10.0,19,0.00,,---,0.00,VWS V14.00,2013-06-28 00:56:00,
2013-06-27 19:58:00,89.3,41.7,29.70,SSE,148,0.0,10.0,19,0.00,,---,0.00,VWS V14.00,2013-06-28 00:58:00,
2013-06-27 19:59:00,89.0,41.4,29.70,SSE,148,0.0,0.0,19,0.00,,---,0.00,VWS V14.00,2013-06-28 00:59:00,
2013-06-27 20:00:00,89.0,41.4,29.70,SSE,148,0.0,0.0,19,0.00,,---,0.00,VWS V14.00,2013-06-28 01:00:00,
2013-06-27 20:01:00,89.0,41.4,29.70,SSE,148,0.0,0.0,19,0.00,,---,0.00,VWS V14.00,2013-06-28 01:01:00,
2013-06-27 20:04:00,88.8,41.3,29.70,SSE,148,0.0,0.0,19,0.00,,---,0.00,VWS V14.00,2013-06-28 01:04:00,
2013-06-27 20:05:00,88.8,42.6,29.70,SE,137,1.0,1.0,20,0.00,,---,0.00,VWS V14.00,2013-06-28 01:05:00,
2013-06-27 20:06:00,88.8,42.6,29.70,SE,137,5.0,5.0,20,0.00,,---,0.00,VWS V14.00,2013-06-28 01:06:00,
2013-06-27 20:07:00,88.6,41.1,29.70,SE,130,2.0,5.0,19,0.00,,---,0.00,VWS V14.00,2013-06-28 01:07:00,
2013-06-27 20:09:00,88.6,41.1,29.70,SE,133,1.0,5.0,19,0.00,,---,0.00,VWS V14.00,2013-06-28 01:09:00,
2013-06-27 20:11:00,88.4,39.5,29.70,SE,128,2.0,5.0,18,0.00,,---,0.00,VWS V14.00,2013-06-28 01:11:00,
2013-06-27 20:13:00,88.4,40.9,29.70,SE,137,0.0,5.0,19,0.00,,---,0.00,VWS V14.00,2013-06-28 01:13:00,
2013-06-27 20:14:00,88.2,40.8,29.64,SE,137,0.0,5.0,19,0.00,,---,0.00,VWS V14.00,2013-06-28 01:14:00,
2013-06-27 20:16:00,88.2,40.8,29.64,SE,134,0.0,5.0,19,0.00,,---,0.00,VWS V14.00,2013-06-28 01:16:00,
2013-06-27 20:17:00,88.2,42.1,29.64,SE,134,0.0,5.0,20,0.00,,---,0.00,VWS V14.00,2013-06-28 01:17:00,
2013-06-27 20:19:00,88.0,41.9,29.64,SE,134,0.0,5.0,20,0.00,,---,0.00,VWS V14.00,2013-06-28 01:19:00,
2013-06-27 20:21:00,87.8,41.8,29.64,SE,136,0.0,5.0,20,0.00,,---,0.00,VWS V14.00,2013-06-28 01:21:00,
2013-06-27 20:22:00,87.8,41.8,29.64,SE,136,0.0,5.0,20,0.00,,---,0.00,VWS V14.00,2013-06-28 01:22:00,
2013-06-27 20:23:00,87.6,41.6,29.64,SE,134,0.0,5.0,20,0.00,,---,0.00,VWS V14.00,2013-06-28 01:23:00,
2013-06-27 20:24:00,87.4,41.5,29.64,SE,134,0.0,5.0,20,0.00,,---,0.00,VWS V14.00,2013-06-28 01:24:00,
2013-06-27 20:26:00,87.2,41.3,29.64,SE,136,0.0,5.0,20,0.00,,---,0.00,VWS V14.00,2013-06-28 01:26:00,
2013-06-27 20:27:00,87.2,41.3,29.64,SE,136,0.0,5.0,20,0.00,,---,0.00,VWS V14.00,2013-06-28 01:27:00,
2013-06-27 20:28:00,87.0,41.1,29.64,SE,136,0.0,5.0,20,0.00,,---,0.00,VWS V14.00,2013-06-28 01:28:00,
2013-06-27 20:29:00,86.7,42.1,29.66,SE,136,0.0,0.0,21,0.00,,---,0.00,VWS V14.00,2013-06-28 01:29:00,
2013-06-27 20:31:00,86.5,42.0,29.66,SE,136,0.0,0.0,21,0.00,,---,0.00,VWS V14.00,2013-06-28 01:31:00,
2013-06-27 20:32:00,86.5,42.0,29.66,SE,136,0.0,0.0,21,0.00,,---,0.00,VWS V14.00,2013-06-28 01:32:00,
2013-06-27 20:33:00,86.3,41.8,29.66,SE,130,0.0,0.0,21,0.00,,---,0.00,VWS V14.00,2013-06-28 01:33:00,
2013-06-27 20:35:00,85.9,41.5,29.66,ESE,104,0.0,0.0,21,0.00,,---,0.00,VWS V14.00,2013-06-28 01:35:00,
2013-06-27 20:37:00,85.9,42.7,29.66,East,85,0.0,6.0,22,0.00,,---,0.00,VWS V14.00,2013-06-28 01:37:00,
2013-06-27 20:38:00,85.9,42.7,29.66,East,85,0.0,6.0,22,0.00,,---,0.00,VWS V14.00,2013-06-28 01:38:00,
2013-06-27 20:39:00,85.9,42.7,29.66,East,86,0.0,6.0,22,0.00,,---,0.00,VWS V14.00,2013-06-28 01:39:00,
2013-06-27 20:40:00,85.7,42.5,29.66,East,86,0.0,6.0,22,0.00,,---,0.00,VWS V14.00,2013-06-28 01:40:00,
2013-06-27 20:43:00,85.7,42.5,29.66,ESE,103,2.0,6.0,22,0.00,,---,0.00,VWS V14.00,2013-06-28 01:43:00,
2013-06-27 20:44:00,85.7,42.5,29.66,ESE,109,3.0,6.0,22,0.00,,---,0.00,VWS V14.00,2013-06-28 01:44:00,
2013-06-27 20:45:00,85.5,42.3,29.66,East,92,0.0,6.0,22,0.00,,---,0.00,VWS V14.00,2013-06-28 01:45:00,
2013-06-27 20:48:00,85.3,43.3,29.66,East,93,1.0,6.0,23,0.00,,---,0.00,VWS V14.00,2013-06-28 01:48:00,
2013-06-27 20:49:00,85.1,43.2,29.66,East,95,1.0,6.0,23,0.00,,---,0.00,VWS V14.00,2013-06-28 01:49:00,
2013-06-27 20:50:00,84.9,43.0,29.66,East,89,0.0,6.0,23,0.00,,---,0.00,VWS V14.00,2013-06-28 01:50:00,
2013-06-27 20:53:00,84.7,42.8,29.66,ENE,78,0.0,6.0,23,0.00,,---,0.00,VWS V14.00,2013-06-28 01:53:00,
2013-06-27 20:54:00,84.5,42.7,29.66,ENE,78,0.0,6.0,23,0.00,,---,0.00,VWS V14.00,2013-06-28 01:54:00,
2013-06-27 20:56:00,84.5,44.9,29.66,East,85,0.0,6.0,25,0.00,,---,0.00,VWS V14.00,2013-06-28 01:56:00,
2013-06-27 20:58:00,84.3,43.6,29.67,East,93,5.0,6.0,24,0.00,,---,0.00,VWS V14.00,2013-06-28 01:58:00,
2013-06-27 21:00:00,84.3,42.5,29.67,ESE,104,0.0,1.0,23,0.00,,---,0.00,VWS V14.00,2013-06-28 02:00:00,
2013-06-27 21:02:00,84.3,44.7,29.67,East,99,0.0,8.0,25,0.00,,---,0.00,VWS V14.00,2013-06-28 02:02:00,
2013-06-27 21:04:00,84.1,43.5,29.67,East,83,0.0,8.0,24,0.00,,---,0.00,VWS V14.00,2013-06-28 02:04:00,
2013-06-27 21:05:00,84.0,43.4,29.67,East,83,0.0,8.0,24,0.00,,---,0.00,VWS V14.00,2013-06-28 02:05:00,
2013-06-27 21:07:00,84.0,43.4,29.67,East,99,1.0,8.0,24,0.00,,---,0.00,VWS V14.00,2013-06-28 02:07:00,
2013-06-27 21:09:00,83.8,43.2,29.67,East,93,0.0,8.0,24,0.00,,---,0.00,VWS V14.00,2013-06-28 02:09:00,
2013-06-27 21:10:00,83.6,43.0,29.67,East,97,2.0,8.0,24,0.00,,---,0.00,VWS V14.00,2013-06-28 02:10:00,
2013-06-27 21:12:00,83.4,43.9,29.67,East,99,3.0,8.0,25,0.00,,---,0.00,VWS V14.00,2013-06-28 02:12:00,
2013-06-27 21:14:00,83.2,43.8,29.64,East,95,0.0,8.0,25,0.00,,---,0.00,VWS V14.00,2013-06-28 02:14:00,
2013-06-27 21:16:00,83.2,43.8,29.64,East,90,1.0,8.0,25,0.00,,---,0.00,VWS V14.00,2013-06-28 02:16:00,
2013-06-27 21:18:00,83.0,43.6,29.64,East,93,0.0,8.0,25,0.00,,---,0.00,VWS V14.00,2013-06-28 02:18:00,
2013-06-27 21:21:00,82.4,44.1,29.64,East,95,0.0,8.0,26,0.00,,---,0.00,VWS V14.00,2013-06-28 02:21:00,
2013-06-27 21:23:00,82.2,43.9,29.64,East,95,0.0,8.0,26,0.00,,---,0.00,VWS V14.00,2013-06-28 02:23:00,
2013-06-27 21:26:00,81.8,43.6,29.64,East,93,0.0,8.0,26,0.00,,---,0.00,VWS V14.00,2013-06-28 02:26:00,
2013-06-27 21:27:00,81.8,43.6,29.64,East,93,0.0,8.0,26,0.00,,---,0.00,VWS V14.00,2013-06-28 02:27:00,
2013-06-27 21:28:00,81.8,43.6,29.64,East,89,0.0,8.0,26,0.00,,---,0.00,VWS V14.00,2013-06-28 02:28:00,
2013-06-27 21:31:00,81.6,43.4,29.64,East,89,0.0,0.0,26,0.00,,---,0.00,VWS V14.00,2013-06-28 02:31:00,
2013-06-27 21:33:00,81.4,43.3,29.64,East,89,0.0,0.0,26,0.00,,---,0.00,VWS V14.00,2013-06-28 02:33:00,
2013-06-27 21:36:00,81.1,44.0,29.64,East,89,0.0,0.0,27,0.00,,---,0.00,VWS V14.00,2013-06-28 02:36:00,
2013-06-27 21:38:00,81.1,44.0,29.64,East,89,0.0,0.0,27,0.00,,---,0.00,VWS V14.00,2013-06-28 02:38:00,
2013-06-27 21:42:00,80.7,43.7,29.64,East,89,0.0,0.0,27,0.00,,---,0.00,VWS V14.00,2013-06-28 02:42:00,
2013-06-27 21:43:00,80.7,43.7,29.66,East,90,0.0,0.0,27,0.00,,---,0.00,VWS V14.00,2013-06-28 02:43:00,
2013-06-27 21:47:00,80.1,43.1,29.66,East,90,0.0,0.0,27,0.00,,---,0.00,VWS V14.00,2013-06-28 02:47:00,
2013-06-27 21:49:00,79.9,43.0,29.66,East,90,0.0,0.0,27,0.00,,---,0.00,VWS V14.00,2013-06-28 02:49:00,
2013-06-27 21:52:00,79.8,42.9,29.66,East,90,0.0,0.0,27,0.00,,---,0.00,VWS V14.00,2013-06-28 02:52:00,
2013-06-27 21:54:00,79.6,42.7,29.66,East,90,0.0,0.0,27,0.00,,---,0.00,VWS V14.00,2013-06-28 02:54:00,
2013-06-27 21:55:00,79.6,43.7,29.66,East,90,0.0,0.0,28,0.00,,---,0.00,VWS V14.00,2013-06-28 02:55:00,